[[{"header":{"parameterUnit":"m.s-1","parameterCategory":1,"la1":30.2991,"la2":30.254,"lo1":-89.0895,"lo2":-89.0444,"dy":0.0017,"dx":0.0017,"nx":28,"ny":28,"refTime":"2024-03-05T03:00:00:Z","depth":0,"parameterNumber":2,"parameterNumberName":"U-component_of_WINDS"},"data":[0,0,0,0,0,0,0,0,0,0,0,0,0,0,0,0,0,0,0,0,0,0,0,0,0,0,0,0,0,0,0,0,0,0,0,0,0,0,0,0,0,0,0,0,0,0,0,0,0,0,0,0,0,0,0,0,0,0,-1.471,-1.4709,0,-1.4619,-1.4618,-1.4617,-1.4532,-1.4531,-1.453,-1.4529,-1.4436,-1.4435,-1.4434,0,0,0,0,0,0,0,0,0,0,0,0,0,-1.481,-1.4808,-1.471,-1.4709,-1.4708,-1.462,-1.4618,-1.4617,-1.4532,-1.4531,-1.4529,-1.4528,-1.4437,-1.4435,-1.4434,0,0,0,0,0,0,0,0,0,0,0,0,0,-1.4748,-1.4808,-1.471,-1.4655,-1.4649,-1.462,-1.4618,-1.4617,-1.4532,-1.4531,-1.4529,-1.4528,-1.4438,-1.4435,-1.4433,-1.4452,0,0,-1.4427,-1.4426,0,0,0,0,0,0,0,0,-1.4751,-1.4744,-1.4664,-1.4658,-1.4652,-1.4585,-1.462,-1.4562,-1.4533,-1.4576,-1.4529,-1.4527,-1.4487,-1.4481,-1.4468,-1.4448,-1.4444,-1.4426,-1.4425,-1.4424,-1.4424,0,0,0,0,0,0,0,-1.4756,-1.4747,-1.4674,-1.4663,-1.4655,-1.4634,-1.4624,-1.4608,-1.4542,-1.4573,-1.4566,-1.4557,-1.4484,-1.447,-1.4465,-1.4443,-1.4426,-1.4425,-1.4423,-1.4422,-1.4435,-1.4437,0,0,0,0,0,0,-1.4768,-1.4751,-1.4677,-1.4671,-1.4698,-1.4634,-1.4622,-1.4608,-1.4542,-1.453,-1.4558,-1.4553,-1.4474,-1.4467,-1.4461,-1.4479,-1.4424,-1.4422,-1.4421,-1.4434,-1.4436,-1.4437,0,0,0,0,0,0,-1.4771,-1.4762,-1.4681,-1.471,-1.4698,-1.4634,-1.4619,-1.4607,-1.4593,-1.4531,-1.4519,-1.4556,-1.4473,-1.4464,-1.4455,-1.4475,-1.4421,-1.4419,-1.4432,-1.4434,-1.4436,-1.4516,0,0,0,0,0,0,-1.4774,-1.4764,-1.477,-1.471,-1.4696,-1.4676,-1.462,-1.4607,-1.459,-1.4582,-1.4526,-1.4515,-1.4471,-1.4459,-1.4453,-1.4471,-1.4418,-1.4429,-1.4433,-1.4436,-1.4512,-1.4521,-1.4529,0,0,0,0,0,-1.4778,-1.4796,-1.4771,-1.4762,-1.4703,-1.4677,-1.4669,-1.4618,-1.4592,-1.4598,-1.4558,-1.4517,-1.4474,-1.4459,-1.4451,-1.4469,-1.4428,-1.4432,-1.4435,-1.4508,-1.4519,-1.4529,0,0,0,0,0,0,-1.4859,-1.4787,-1.4758,-1.4758,-1.4724,-1.4663,-1.4669,-1.4632,-1.4605,-1.4599,-1.4537,-1.4525,-1.4524,-1.4495,-1.448,-1.4485,-1.4445,-1.4448,-1.4503,-1.4514,-1.4522,-1.4529,-1.4416,0,0,0,0,0,-1.4877,-1.4862,-1.48,-1.4806,-1.479,-1.4733,-1.472,-1.4683,-1.4646,-1.4632,-1.4591,-1.4557,-1.4536,-1.4523,-1.45,-1.4507,-1.4494,-1.4516,-1.4525,-1.4533,-1.4535,-1.4538,-1.4547,-1.4449,-1.4449,-1.4449,0,0,-1.4914,-1.4873,-1.4867,-1.4821,-1.4791,-1.4777,-1.4721,-1.4709,-1.4699,-1.463,-1.4619,-1.4588,-1.4546,-1.4546,-1.4543,-1.4522,-1.456,-1.4537,-1.4544,-1.4542,-1.4543,-1.4552,-1.456,-1.4452,-1.4451,-1.4451,0,0,-1.4974,-1.4941,-1.4942,-1.4914,-1.4869,-1.4831,-1.4831,-1.4776,-1.4753,-1.4741,-1.4689,-1.4676,-1.4641,-1.4613,-1.4595,-1.4646,-1.4608,-1.464,-1.4687,-1.469,-1.4698,-1.4704,-1.4723,-1.4731,-1.4643,-1.4644,-1.4644,0,-1.5025,-1.5002,-1.4948,-1.4939,-1.492,-1.4858,-1.4859,-1.4834,-1.4784,-1.4773,-1.475,-1.4705,-1.4673,-1.4665,-1.4678,-1.4665,-1.4664,-1.4646,-1.4701,-1.4707,-1.4712,-1.473,-1.4737,-1.4648,-1.4647,-1.4647,-1.4647,0,-1.5068,-1.5053,-1.5059,-1.5013,-1.4996,-1.4992,-1.4937,-1.4926,-1.4892,-1.4857,-1.4846,-1.4805,-1.4773,-1.4768,-1.4734,-1.4757,-1.4745,-1.4713,-1.4672,-1.4727,-1.4742,-1.4748,-1.4654,-1.4653,-1.4651,-1.465,0,0,-1.5175,-1.51,-1.5103,-1.5082,-1.5029,-1.5017,-1.5011,-1.498,-1.4972,-1.494,-1.4934,-1.4906,-1.4876,-1.4855,-1.4818,-1.4821,-1.4865,-1.4788,-1.4786,-1.4804,-1.4888,-1.4913,-1.4921,-1.4839,-1.4841,-1.4841,-1.4891,0,-1.5226,-1.5211,-1.5163,-1.5163,-1.5149,-1.509,-1.5085,-1.5053,-1.502,-1.5004,-1.4967,-1.4949,-1.491,-1.4898,-1.4898,-1.486,-1.4881,-1.4855,-1.4833,-1.4833,-1.4846,-1.4929,-1.4955,-1.5004,-1.4897,-1.4898,-1.4899,0,-1.5283,-1.5256,-1.5255,-1.5203,-1.5196,-1.5192,-1.516,-1.5145,-1.5108,-1.5083,-1.5061,-1.502,-1.5011,-1.4974,-1.4961,-1.4945,-1.4933,-1.4913,-1.4914,-1.491,-1.4869,-1.4927,-1.5018,-1.5026,-1.4907,-1.4907,-1.4906,0,-1.5362,-1.5325,-1.532,-1.5303,-1.5243,-1.5242,-1.5217,-1.5177,-1.5162,-1.5135,-1.5125,-1.5097,-1.5081,-1.5061,-1.5014,-1.4991,-1.5007,-1.4965,-1.4987,-1.4988,-1.4993,-1.4993,-1.5083,-1.4986,-1.4985,-1.4985,-1.4985,0,-1.5424,-1.5426,-1.5355,-1.5351,-1.5352,-1.5297,-1.5299,-1.5268,-1.5234,-1.5224,-1.5172,-1.5164,-1.5102,-1.5087,-1.505,-1.5046,-1.504,-1.502,-1.501,-1.5025,-1.5027,-1.5016,-1.5012,-1.4987,-1.4987,-1.4986,-1.4986,0,-1.5512,-1.5464,-1.5455,-1.5399,-1.5385,-1.5388,-1.534,-1.5335,-1.53,-1.5289,-1.5283,-1.5227,-1.5207,-1.5158,-1.5125,-1.51,-1.5106,-1.5088,-1.5119,-1.5113,-1.5137,-1.5136,-1.5224,-1.5233,-1.513,-1.5131,-1.5132,0,-1.5554,-1.5554,-1.5499,-1.5489,-1.5466,-1.545,-1.5435,-1.5381,-1.5367,-1.5325,-1.5326,-1.5302,-1.5279,-1.525,-1.5207,-1.5182,-1.5163,-1.5196,-1.5159,-1.5174,-1.5164,-1.5165,-1.5165,-1.5204,-1.5205,-1.5206,-1.5207,0,-1.5635,-1.5612,-1.5591,-1.5564,-1.5547,-1.5522,-1.5495,-1.5489,-1.5429,-1.5416,-1.5395,-1.5378,-1.5345,-1.5322,-1.5291,-1.5265,-1.5227,-1.5219,-1.5223,-1.5238,-1.5256,-1.5247,-1.5141,-1.5217,-1.5216,-1.5216,-1.5215,-1.5215,-1.5701,-1.5699,-1.566,-1.564,-1.5614,-1.559,-1.5582,-1.5547,-1.5528,-1.5497,-1.5467,-1.5449,-1.5413,-1.5366,-1.5344,-1.533,-1.531,-1.5315,-1.5316,-1.5319,-1.5325,-1.5259,-1.5324,-1.5323,-1.5323,-1.5323,-1.5323,0,-1.578,-1.5752,-1.5734,-1.5697,-1.5682,-1.5647,-1.5615,-1.5604,-1.559,-1.5559,-1.5538,-1.5515,-1.5493,-1.5449,-1.5423,-1.5421,-1.5403,-1.5416,-1.5415,-1.541,-1.5344,-1.5344,-1.5431,-1.5431,-1.5431,-1.5431,-1.5431,-1.5431,-1.5818,-1.5813,-1.5786,-1.5767,-1.574,-1.5722,-1.5707,-1.5685,-1.566,-1.5637,-1.5618,-1.559,-1.5554,-1.5525,-1.5504,-1.5492,-1.5485,-1.5504,-1.5486,-1.5425,-1.5415,-1.5405,-1.5404,-1.5503,-1.5503,-1.5553,-1.5554,-1.5554]},{"header":{"parameterUnit":"m.s-1","parameterCategory":1,"la1":30.2991,"la2":30.254,"lo1":-89.0895,"lo2":-89.0444,"dy":0.0017,"dx":0.0017,"nx":28,"ny":28,"refTime":"2024-03-05T03:00:00:Z","depth":0,"parameterNumber":3,"parameterNumberName":"V-component_of_WINDS"},"data":[0,0,0,0,0,0,0,0,0,0,0,0,0,0,0,0,0,0,0,0,0,0,0,0,0,0,0,0,0,0,0,0,0,0,0,0,0,0,0,0,0,0,0,0,0,0,0,0,0,0,0,0,0,0,0,0,0,0,0.7737,0.7737,0,0.7737,0.7737,0.7737,0.7771,0.7772,0.7773,0.7774,0.777,0.7769,0.7768,0,0,0,0,0,0,0,0,0,0,0,0,0,0.7763,0.7763,0.7737,0.7737,0.7737,0.7737,0.7737,0.7737,0.7771,0.7772,0.7773,0.7774,0.777,0.7769,0.7768,0,0,0,0,0,0,0,0,0,0,0,0,0,0.7756,0.7762,0.7737,0.7754,0.7755,0.7737,0.7737,0.7737,0.7771,0.7772,0.7773,0.7774,0.7771,0.777,0.7768,0.7733,0,0,0.7764,0.7763,0,0,0,0,0,0,0,0,0.7757,0.7755,0.7751,0.7753,0.7754,0.7756,0.7745,0.7736,0.777,0.7765,0.7774,0.7775,0.7764,0.7763,0.776,0.7733,0.7733,0.7764,0.7763,0.7762,0.7762,0,0,0,0,0,0,0,0.7757,0.7756,0.7737,0.7751,0.7753,0.7761,0.7761,0.7744,0.7757,0.7765,0.7768,0.7767,0.7765,0.7762,0.776,0.7733,0.7764,0.7763,0.7762,0.7761,0.7676,0.7675,0,0,0,0,0,0,0.7756,0.7756,0.7737,0.7737,0.7759,0.7759,0.776,0.7754,0.7757,0.7759,0.7766,0.7769,0.7763,0.7762,0.776,0.7719,0.7762,0.7761,0.776,0.7678,0.7676,0.7674,0,0,0,0,0,0,0.7756,0.7754,0.7737,0.7747,0.7746,0.7757,0.775,0.7753,0.775,0.7758,0.776,0.776,0.7764,0.7762,0.774,0.7719,0.776,0.7759,0.7679,0.7677,0.7675,0.7636,0,0,0,0,0,0,0.7757,0.7754,0.7741,0.7747,0.7745,0.7717,0.7749,0.7752,0.7748,0.7751,0.7753,0.7754,0.7765,0.7742,0.7738,0.7718,0.7758,0.7681,0.7678,0.7676,0.7639,0.7632,0.7627,0,0,0,0,0,0.7758,0.7729,0.774,0.7737,0.7729,0.7716,0.7715,0.7728,0.7746,0.7732,0.7738,0.7754,0.7723,0.7739,0.7736,0.7715,0.7683,0.7679,0.7676,0.7641,0.7634,0.7627,0,0,0,0,0,0,0.7718,0.773,0.7742,0.7715,0.7714,0.7721,0.7705,0.772,0.7713,0.7717,0.7733,0.7733,0.7708,0.7709,0.7727,0.7681,0.7706,0.7701,0.768,0.7673,0.7667,0.7666,0.7757,0,0,0,0,0,0.7707,0.7696,0.7706,0.7681,0.768,0.7693,0.7687,0.7698,0.7698,0.7697,0.7701,0.7699,0.7689,0.7681,0.7672,0.764,0.7641,0.7624,0.7618,0.7613,0.7609,0.7592,0.7584,0.7664,0.7664,0.7664,0,0,0.7682,0.7687,0.7679,0.7673,0.7674,0.7661,0.7692,0.7677,0.7668,0.7695,0.7673,0.7677,0.7676,0.7648,0.7636,0.7648,0.7588,0.7609,0.7605,0.7603,0.7588,0.758,0.7573,0.7662,0.7662,0.7663,0,0,0.7631,0.7634,0.7613,0.7614,0.7616,0.7624,0.7619,0.7625,0.7628,0.7608,0.7628,0.7617,0.7599,0.7597,0.7594,0.7544,0.7558,0.7541,0.7509,0.7492,0.7485,0.748,0.7461,0.7454,0.7537,0.7537,0.7537,0,0.7599,0.7582,0.76,0.7584,0.7581,0.7607,0.7586,0.7585,0.7583,0.758,0.7595,0.7573,0.7574,0.7546,0.7534,0.7531,0.7525,0.7539,0.7485,0.748,0.7475,0.7457,0.745,0.7534,0.7535,0.7535,0.7535,0,0.7543,0.7531,0.7514,0.7512,0.7508,0.7489,0.7503,0.7496,0.7508,0.7516,0.7494,0.7497,0.7489,0.7484,0.7495,0.7458,0.7465,0.7483,0.7507,0.7465,0.7448,0.7441,0.7531,0.7532,0.7533,0.7533,0,0,0.7464,0.7475,0.7468,0.7468,0.7473,0.7463,0.7446,0.744,0.7432,0.7431,0.7416,0.7401,0.7417,0.7414,0.7425,0.7411,0.737,0.7429,0.743,0.7417,0.7328,0.7313,0.7305,0.7381,0.7379,0.7378,0.7327,0,0.7413,0.7384,0.7401,0.737,0.7358,0.7384,0.7369,0.737,0.7377,0.7367,0.7375,0.7363,0.7386,0.7384,0.7371,0.7377,0.7352,0.7382,0.7365,0.7364,0.7362,0.7296,0.7281,0.7232,0.7321,0.732,0.7319,0,0.7348,0.7345,0.7313,0.7321,0.7317,0.7303,0.7299,0.729,0.7292,0.7298,0.7295,0.731,0.7293,0.732,0.7296,0.7316,0.7311,0.7313,0.7312,0.7309,0.7337,0.729,0.7217,0.7209,0.7309,0.731,0.7311,0,0.7292,0.728,0.7259,0.7259,0.7268,0.7257,0.726,0.7264,0.7259,0.7255,0.7252,0.7246,0.7243,0.7237,0.7251,0.7269,0.7225,0.7252,0.7228,0.7227,0.7215,0.7215,0.7138,0.7215,0.7215,0.7215,0.7215,0,0.7231,0.721,0.7234,0.7221,0.7198,0.7218,0.7195,0.7201,0.7204,0.7192,0.7214,0.7202,0.7222,0.7212,0.7222,0.72,0.7199,0.7202,0.7205,0.7199,0.7198,0.7194,0.7196,0.7213,0.7214,0.7214,0.7215,0,0.7163,0.7179,0.7158,0.7169,0.7171,0.7153,0.7162,0.715,0.716,0.7145,0.7142,0.7156,0.7146,0.716,0.715,0.7157,0.7127,0.7135,0.7126,0.7128,0.7102,0.7103,0.7018,0.7007,0.7092,0.7091,0.7091,0,0.7122,0.7107,0.7117,0.7111,0.7114,0.7104,0.71,0.712,0.7114,0.7116,0.7103,0.7095,0.7089,0.7071,0.708,0.7073,0.708,0.7051,0.7079,0.7074,0.7077,0.7077,0.7075,0.7044,0.7043,0.7042,0.7042,0,0.7048,0.7057,0.7051,0.7048,0.7042,0.704,0.704,0.7034,0.7055,0.7047,0.7038,0.7033,0.7025,0.7015,0.7011,0.7013,0.703,0.7033,0.7027,0.7019,0.7014,0.7015,0.7108,0.7034,0.7035,0.7036,0.7036,0.7036,0.6991,0.6979,0.6984,0.6977,0.6979,0.6978,0.6968,0.6977,0.697,0.6965,0.6977,0.6964,0.6967,0.6963,0.6964,0.6953,0.6966,0.6957,0.6954,0.6951,0.6946,0.7018,0.6953,0.6953,0.6953,0.6953,0.6954,0,0.6916,0.6922,0.6915,0.6915,0.6909,0.6928,0.6929,0.6922,0.6911,0.6913,0.6908,0.6896,0.6888,0.6897,0.6891,0.6881,0.6888,0.6878,0.6878,0.6878,0.6936,0.6942,0.6872,0.6872,0.6872,0.6872,0.6872,0.6872,0.6877,0.6856,0.6866,0.6848,0.6853,0.6842,0.684,0.684,0.6842,0.6829,0.6823,0.683,0.6834,0.6828,0.6822,0.6825,0.682,0.6807,0.6812,0.6866,0.6874,0.6881,0.6886,0.6806,0.6806,0.6754,0.6754,0.6754]}]]